Location: Dammartin
(48.9032°N, 1.6195°E)
Time: 12:11:00
(UTC+00:00)

Cosmos 2360 Rocket - Visible Passes

Search period start: 25 September 2023 00:00
Search period end: 05 October 2023 00:00
Orbit: 832 x 846 km, 71.0° (Epoch: 25 September)

Date Brightness Start Highest point End Pass type
(mag) Time Alt. Az. Time Alt. Az. Time Alt. Az.
25 Sep 5.2 01:02:40 10° N 01:04:31 11° NNE 01:06:20 10° NE visible
25 Sep 3.7 02:45:04 10° NNW 02:50:19 36° NE 02:55:32 10° ESE visible
25 Sep 2.4 04:29:03 10° NW 04:34:27 46° WSW 04:39:48 10° S visible
25 Sep 3.1 19:23:37 10° SW 19:29:05 50° NW 19:34:38 10° NNE visible
25 Sep 5.1 21:11:34 10° WNW 21:14:32 14° NNW 21:17:31 10° N visible
26 Sep 5.2 00:46:58 10° N 00:48:33 11° NNE 00:50:09 10° NE visible
26 Sep 3.7 02:29:13 10° NNW 02:34:25 35° NE 02:39:35 10° ESE visible
26 Sep 2.4 04:13:09 10° NW 04:18:36 49° WSW 04:24:01 10° S visible
26 Sep 3.0 19:07:42 10° SW 19:13:12 53° NW 19:18:47 10° NNE visible
26 Sep 5.0 20:55:29 10° WNW 20:58:36 15° NNW 21:01:44 10° N visible
27 Sep 5.2 00:31:18 10° N 00:32:36 11° NNE 00:33:54 10° NE visible
27 Sep 3.8 02:13:24 10° NNW 02:18:31 33° NE 02:23:37 10° ESE visible
27 Sep 2.3 03:57:16 10° NW 04:02:46 52° WSW 04:08:13 10° S visible
27 Sep 3.0 18:51:48 10° SW 18:57:20 56° NW 19:02:56 10° NNE visible
27 Sep 5.0 20:39:24 10° WNW 20:42:40 15° NNW 20:45:56 10° N visible
28 Sep 5.2 00:15:43 10° NNE 00:16:39 10° NNE 00:17:35 10° NNE visible
28 Sep 3.8 01:57:34 10° NNW 02:02:37 32° NE 02:07:39 10° ESE visible
28 Sep 2.2 03:41:23 10° NW 03:46:55 55° WSW 03:52:26 10° S visible
28 Sep 2.9 18:35:53 10° SW 18:41:27 59° WNW 18:47:05 10° NNE visible
28 Sep 4.9 20:23:19 10° WNW 20:26:43 16° NW 20:30:09 10° N visible
29 Sep 5.2 00:00:26 10° NNE 00:00:41 10° NNE 00:00:57 10° NNE visible
29 Sep 3.9 01:41:43 10° NNW 01:46:43 30° NE 01:51:41 10° ESE visible
29 Sep 2.1 03:25:30 10° NW 03:31:05 58° WSW 03:36:37 10° S visible
29 Sep 2.8 18:20:00 10° SW 18:25:35 62° WNW 18:31:14 10° NNE visible
29 Sep 4.9 20:07:16 10° WNW 20:10:47 17° NW 20:14:20 10° N visible
30 Sep 3.9 01:25:54 10° NNW 01:30:27 29° NE 01:30:27 29° NE visible
30 Sep 3.5 03:09:37 10° NNW 03:21:28 - SSE 03:11:59 25° NW visible
30 Sep 2.7 18:04:06 10° SW 18:09:42 66° WNW 18:15:23 10° NNE visible
30 Sep 4.9 19:51:12 10° WNW 19:54:52 17° NW 19:58:32 10° N visible
01 Oct 4.3 01:10:04 10° NNW 01:12:50 22° NNE 01:12:50 22° NNE visible
01 Oct 4.3 02:53:44 10° NNW 02:54:29 14° NW 02:54:29 14° NW visible
01 Oct 4.8 19:35:09 10° W 19:38:55 18° NW 19:42:44 10° N visible
02 Oct 4.6 00:54:14 10° NNW 00:56:07 18° N 00:56:07 18° N visible
02 Oct 4.7 19:19:05 10° W 19:23:00 19° NW 19:26:55 10° N visible
03 Oct 4.7 00:38:24 10° NNW 00:39:43 15° N 00:39:43 15° N visible
03 Oct 4.7 19:03:03 10° W 19:07:04 19° NW 19:11:06 10° N visible
04 Oct 4.9 00:22:35 10° N 00:23:32 14° N 00:23:32 14° N visible
04 Oct 4.6 18:47:02 10° W 18:51:09 20° NW 18:55:18 10° N visible
